Time,TemperatureF,DewpointF,PressureIn,WindDirection,WindDirectionDegrees,WindSpeedMPH,WindSpeedGustMPH,Humidity,HourlyPrecipIn,Conditions,Clouds,dailyrainin,SoftwareType,DateUTC
2013-06-30 00:01:00,89.1,54.4,28.97,NE,47,7.2,7.2,31,0.00,,,0.00,LWC V2.10 B1813,2013-06-30 05:01:00,
2013-06-30 00:06:00,88.9,54.3,29.00,NE,39,2.7,8.7,31,0.00,,,0.00,LWC V2.10 B1813,2013-06-30 05:06:00,
2013-06-30 00:11:00,88.7,54.1,29.00,SE,134,5.8,5.8,31,0.00,,,0.00,LWC V2.10 B1813,2013-06-30 05:11:00,
2013-06-30 00:16:00,88.5,54.0,29.00,ESE,111,2.7,6.3,31,0.00,,,0.00,LWC V2.10 B1813,2013-06-30 05:16:00,
2013-06-30 00:21:00,88.5,54.0,29.00,East,84,3.6,3.6,31,0.00,,,0.00,LWC V2.10 B1813,2013-06-30 05:21:00,
2013-06-30 00:26:00,88.3,53.8,29.00,East,98,3.1,4.0,31,0.00,,,0.00,LWC V2.10 B1813,2013-06-30 05:26:00,
2013-06-30 00:31:00,88.2,53.7,29.00,East,101,3.1,4.9,31,0.00,,,0.00,LWC V2.10 B1813,2013-06-30 05:31:00,
2013-06-30 00:36:00,88.2,53.7,29.00,NE,43,2.7,3.6,31,0.00,,,0.00,LWC V2.10 B1813,2013-06-30 05:36:00,
2013-06-30 00:41:00,88.0,52.6,29.00,NE,52,3.1,5.4,30,0.00,,,0.00,LWC V2.10 B1813,2013-06-30 05:41:00,
2013-06-30 00:46:00,87.8,52.5,29.00,ESE,102,4.0,5.8,30,0.00,,,0.00,LWC V2.10 B1813,2013-06-30 05:46:00,
2013-06-30 00:51:00,87.8,52.5,29.00,SE,138,4.0,7.6,30,0.00,,,0.00,LWC V2.10 B1813,2013-06-30 05:51:00,
2013-06-30 00:56:00,87.6,53.2,29.00,East,88,5.8,5.8,31,0.00,,,0.00,LWC V2.10 B1813,2013-06-30 05:56:00,
2013-06-30 01:01:00,87.6,53.2,29.00,East,92,2.7,4.9,31,0.00,,,0.00,LWC V2.10 B1813,2013-06-30 06:01:00,
2013-06-30 01:06:00,87.4,53.0,29.00,East,93,3.6,4.0,31,0.00,,,0.00,LWC V2.10 B1813,2013-06-30 06:06:00,
2013-06-30 01:11:00,87.4,53.0,29.00,East,97,2.7,6.3,31,0.00,,,0.00,LWC V2.10 B1813,2013-06-30 06:11:00,
2013-06-30 01:16:00,87.4,53.0,29.00,East,86,3.6,5.4,31,0.00,,,0.00,LWC V2.10 B1813,2013-06-30 06:16:00,
2013-06-30 01:21:00,87.4,53.0,29.00,ENE,68,2.7,5.4,31,0.00,,,0.00,LWC V2.10 B1813,2013-06-30 06:21:00,
2013-06-30 01:26:00,87.3,52.9,29.00,East,96,2.2,4.9,31,0.00,,,0.00,LWC V2.10 B1813,2013-06-30 06:26:00,
2013-06-30 01:31:00,87.3,52.9,29.00,NE,52,3.1,4.0,31,0.00,,,0.00,LWC V2.10 B1813,2013-06-30 06:31:00,
2013-06-30 01:36:00,87.1,52.7,29.00,NE,41,2.7,5.4,31,0.00,,,0.00,LWC V2.10 B1813,2013-06-30 06:36:00,
2013-06-30 01:41:00,86.9,52.6,29.00,NNE,12,2.7,4.9,31,0.00,,,0.00,LWC V2.10 B1813,2013-06-30 06:41:00,
2013-06-30 01:46:00,86.7,52.4,29.00,ENE,63,0.0,4.0,31,0.00,,,0.00,LWC V2.10 B1813,2013-06-30 06:46:00,
2013-06-30 01:51:00,86.5,52.3,29.00,NE,53,4.0,4.0,31,0.00,,,0.00,LWC V2.10 B1813,2013-06-30 06:51:00,
2013-06-30 01:56:00,86.4,52.1,29.00,ENE,74,2.2,8.3,31,0.00,,,0.00,LWC V2.10 B1813,2013-06-30 06:56:00,
2013-06-30 02:01:00,86.4,52.1,29.00,East,93,0.0,3.6,31,0.00,,,0.00,LWC V2.10 B1813,2013-06-30 07:01:00,
2013-06-30 02:06:00,86.2,52.0,29.00,NNE,30,3.1,4.0,31,0.00,,,0.00,LWC V2.10 B1813,2013-06-30 07:06:00,
2013-06-30 02:11:00,86.0,51.8,29.00,East,83,6.3,6.3,31,0.00,,,0.00,LWC V2.10 B1813,2013-06-30 07:11:00,
2013-06-30 02:16:00,85.8,52.5,29.00,East,100,5.4,5.4,32,0.00,,,0.00,LWC V2.10 B1813,2013-06-30 07:16:00,
2013-06-30 02:21:00,85.6,52.4,29.00,ESE,110,4.9,5.4,32,0.00,,,0.00,LWC V2.10 B1813,2013-06-30 07:21:00,
2013-06-30 02:26:00,85.5,52.2,29.00,East,93,2.7,5.8,32,0.00,,,0.00,LWC V2.10 B1813,2013-06-30 07:26:00,
2013-06-30 02:31:00,85.3,52.0,29.00,East,93,3.1,3.6,32,0.00,,,0.00,LWC V2.10 B1813,2013-06-30 07:31:00,
2013-06-30 02:36:00,85.1,51.9,29.00,ENE,59,2.7,6.3,32,0.00,,,0.00,LWC V2.10 B1813,2013-06-30 07:36:00,
2013-06-30 02:41:00,84.9,52.6,29.00,ENE,63,2.2,3.1,33,0.00,,,0.00,LWC V2.10 B1813,2013-06-30 07:41:00,
2013-06-30 02:46:00,84.7,52.4,29.00,ENE,57,0.0,4.0,33,0.00,,,0.00,LWC V2.10 B1813,2013-06-30 07:46:00,
2013-06-30 02:51:00,84.6,52.3,29.00,East,86,2.7,5.4,33,0.00,,,0.00,LWC V2.10 B1813,2013-06-30 07:51:00,
2013-06-30 02:56:00,84.2,51.9,29.00,East,80,2.7,4.0,33,0.00,,,0.00,LWC V2.10 B1813,2013-06-30 07:56:00,
2013-06-30 03:01:00,84.0,52.6,29.00,East,87,3.1,5.8,34,0.00,,,0.00,LWC V2.10 B1813,2013-06-30 08:01:00,
2013-06-30 03:06:00,83.8,53.2,29.00,East,81,3.1,7.6,35,0.00,,,0.00,LWC V2.10 B1813,2013-06-30 08:06:00,
2013-06-30 03:11:00,83.1,53.4,29.00,ENE,68,3.6,5.4,36,0.00,,,0.00,LWC V2.10 B1813,2013-06-30 08:11:00,
2013-06-30 03:16:00,81.7,53.6,29.00,ENE,77,4.0,6.3,38,0.00,,,0.00,LWC V2.10 B1813,2013-06-30 08:16:00,
2013-06-30 03:21:00,80.8,54.2,29.00,ENE,68,3.1,4.9,40,0.00,,,0.00,LWC V2.10 B1813,2013-06-30 08:21:00,
2013-06-30 03:26:00,79.7,54.6,29.00,East,84,8.1,8.1,42,0.00,,,0.00,LWC V2.10 B1813,2013-06-30 08:26:00,
2013-06-30 03:31:00,79.5,55.0,29.00,ESE,109,6.3,12.3,43,0.00,,,0.00,LWC V2.10 B1813,2013-06-30 08:31:00,
2013-06-30 03:36:00,79.2,55.3,29.00,SE,137,7.2,8.7,44,0.00,,,0.00,LWC V2.10 B1813,2013-06-30 08:36:00,
2013-06-30 03:41:00,78.8,56.2,29.00,ESE,104,3.6,12.8,46,0.00,,,0.00,LWC V2.10 B1813,2013-06-30 08:41:00,
2013-06-30 03:46:00,78.6,56.7,29.00,ENE,65,3.6,7.6,47,0.00,,,0.00,LWC V2.10 B1813,2013-06-30 08:46:00,
2013-06-30 03:51:00,79.0,56.4,29.00,East,97,5.8,11.0,46,0.00,,,0.00,LWC V2.10 B1813,2013-06-30 08:51:00,
2013-06-30 03:56:00,79.2,56.6,29.00,ESE,110,7.6,8.3,46,0.00,,,0.00,LWC V2.10 B1813,2013-06-30 08:56:00,
2013-06-30 04:01:00,79.0,56.4,29.00,ENE,70,3.6,7.6,46,0.00,,,0.00,LWC V2.10 B1813,2013-06-30 09:01:00,
2013-06-30 04:06:00,78.6,56.7,29.00,ESE,105,3.1,10.5,47,0.00,,,0.00,LWC V2.10 B1813,2013-06-30 09:06:00,
2013-06-30 04:11:00,78.1,57.3,29.00,East,94,2.2,6.3,49,0.00,,,0.00,LWC V2.10 B1813,2013-06-30 09:11:00,
2013-06-30 04:16:00,77.2,57.6,29.00,East,95,3.1,8.7,51,0.00,,,0.00,LWC V2.10 B1813,2013-06-30 09:16:00,
2013-06-30 04:21:00,76.8,58.4,29.00,East,86,4.9,7.2,53,0.00,,,0.00,LWC V2.10 B1813,2013-06-30 09:21:00,
2013-06-30 04:26:00,76.6,59.2,29.00,SE,135,4.0,8.3,55,0.00,,,0.00,LWC V2.10 B1813,2013-06-30 09:26:00,
2013-06-30 04:31:00,76.6,60.2,29.00,SE,137,4.9,6.3,57,0.00,,,0.00,LWC V2.10 B1813,2013-06-30 09:31:00,
2013-06-30 04:36:00,76.6,60.2,29.00,ESE,120,2.7,5.8,57,0.00,,,0.00,LWC V2.10 B1813,2013-06-30 09:36:00,
2013-06-30 04:41:00,76.5,60.1,29.00,SE,141,5.8,8.3,57,0.00,,,0.00,LWC V2.10 B1813,2013-06-30 09:41:00,
2013-06-30 04:46:00,76.3,60.4,29.00,SSE,168,5.8,11.0,58,0.00,,,0.00,LWC V2.10 B1813,2013-06-30 09:46:00,
2013-06-30 04:51:00,76.3,60.9,29.00,SSE,158,3.1,7.6,59,0.00,,,0.00,LWC V2.10 B1813,2013-06-30 09:51:00,
2013-06-30 04:56:00,76.3,60.4,29.00,South,175,3.1,8.1,58,0.00,,,0.00,LWC V2.10 B1813,2013-06-30 09:56:00,
2013-06-30 05:01:00,76.1,60.2,29.00,South,180,3.6,7.2,58,0.00,,,0.00,LWC V2.10 B1813,2013-06-30 10:01:00,
2013-06-30 05:06:00,76.1,59.7,29.00,ESE,105,3.6,4.0,57,0.00,,,0.00,LWC V2.10 B1813,2013-06-30 10:06:00,
2013-06-30 05:11:00,75.9,60.1,29.00,SE,126,7.6,7.6,58,0.00,,,0.00,LWC V2.10 B1813,2013-06-30 10:11:00,
2013-06-30 05:16:00,76.1,59.7,29.00,ESE,123,2.2,6.3,57,0.00,,,0.00,LWC V2.10 B1813,2013-06-30 10:16:00,
2013-06-30 05:21:00,76.1,59.2,29.00,East,95,2.7,5.8,56,0.00,,,0.00,LWC V2.10 B1813,2013-06-30 10:21:00,
2013-06-30 05:26:00,76.1,58.7,29.00,East,96,2.7,4.0,55,0.00,,,0.00,LWC V2.10 B1813,2013-06-30 10:26:00,
2013-06-30 05:31:00,76.1,58.7,29.00,East,98,2.7,3.1,55,0.00,,,0.00,LWC V2.10 B1813,2013-06-30 10:31:00,
2013-06-30 05:36:00,75.9,59.1,29.00,ENE,71,0.0,0.0,56,0.00,,,0.00,LWC V2.10 B1813,2013-06-30 10:36:00,
2013-06-30 05:41:00,75.6,60.7,29.00,SSE,163,3.6,4.9,60,0.00,,,0.00,LWC V2.10 B1813,2013-06-30 10:41:00,
2013-06-30 05:46:00,75.4,61.0,29.00,ESE,108,5.8,5.8,61,0.00,,,0.00,LWC V2.10 B1813,2013-06-30 10:46:00,
2013-06-30 05:51:00,75.2,61.3,29.00,SE,133,3.1,5.4,62,0.00,,,0.00,LWC V2.10 B1813,2013-06-30 10:51:00,
2013-06-30 05:56:00,74.8,61.8,29.00,East,101,5.4,5.8,64,0.00,,,0.00,LWC V2.10 B1813,2013-06-30 10:56:00,
2013-06-30 06:01:00,74.5,61.5,29.00,ESE,102,5.4,8.1,64,0.00,,,0.00,LWC V2.10 B1813,2013-06-30 11:01:00,
2013-06-30 06:06:00,74.1,62.4,29.00,ENE,75,7.6,7.6,67,0.00,,,0.00,LWC V2.10 B1813,2013-06-30 11:06:00,
2013-06-30 06:11:00,73.9,62.3,29.00,East,99,3.6,7.6,67,0.00,,,0.00,LWC V2.10 B1813,2013-06-30 11:11:00,
2013-06-30 06:16:00,73.8,62.1,29.03,SE,134,3.6,4.9,67,0.00,,,0.00,LWC V2.10 B1813,2013-06-30 11:16:00,
2013-06-30 06:21:00,73.6,61.9,29.03,East,98,3.6,4.9,67,0.00,,,0.00,LWC V2.10 B1813,2013-06-30 11:21:00,
2013-06-30 06:26:00,73.6,61.9,29.03,SE,143,2.2,4.0,67,0.00,,,0.00,LWC V2.10 B1813,2013-06-30 11:26:00,
2013-06-30 06:31:00,73.6,61.9,29.03,ESE,111,3.6,3.6,67,0.00,,,0.00,LWC V2.10 B1813,2013-06-30 11:31:00,
2013-06-30 06:36:00,73.8,61.7,29.03,East,101,0.0,0.0,66,0.00,,,0.00,LWC V2.10 B1813,2013-06-30 11:36:00,
2013-06-30 06:41:00,74.1,62.0,29.03,North,5,2.7,5.4,66,0.00,,,0.00,LWC V2.10 B1813,2013-06-30 11:41:00,
2013-06-30 06:46:00,74.3,62.2,29.06,NNE,29,2.2,2.7,66,0.00,,,0.00,LWC V2.10 B1813,2013-06-30 11:46:00,
2013-06-30 06:51:00,73.9,62.3,29.06,East,81,3.1,5.8,67,0.00,,,0.00,LWC V2.10 B1813,2013-06-30 11:51:00,
2013-06-30 06:56:00,73.8,62.5,29.06,East,80,2.7,8.1,68,0.00,,,0.00,LWC V2.10 B1813,2013-06-30 11:56:00,
2013-06-30 07:01:00,73.8,62.5,29.06,NE,38,2.7,3.6,68,0.00,,,0.00,LWC V2.10 B1813,2013-06-30 12:01:00,
2013-06-30 07:06:00,73.4,63.0,29.06,North,353,2.7,4.0,70,0.00,,,0.00,LWC V2.10 B1813,2013-06-30 12:06:00,
2013-06-30 07:11:00,73.0,62.7,29.06,NNE,32,2.7,3.6,70,0.00,,,0.00,LWC V2.10 B1813,2013-06-30 12:11:00,
2013-06-30 07:16:00,73.0,62.7,29.06,NNE,15,2.2,3.6,70,0.00,,,0.00,LWC V2.10 B1813,2013-06-30 12:16:00,
2013-06-30 07:21:00,73.2,62.8,29.06,NNE,15,0.0,0.0,70,0.00,,,0.00,LWC V2.10 B1813,2013-06-30 12:21:00,
2013-06-30 07:26:00,73.4,63.8,29.06,SSW,209,4.5,6.3,72,0.00,,,0.00,LWC V2.10 B1813,2013-06-30 12:26:00,
2013-06-30 07:31:00,72.5,64.1,29.06,ENE,63,0.0,2.7,75,0.00,,,0.00,LWC V2.10 B1813,2013-06-30 12:31:00,
2013-06-30 07:36:00,72.3,64.3,29.06,NE,38,0.0,0.0,76,0.00,,,0.00,LWC V2.10 B1813,2013-06-30 12:36:00,
2013-06-30 07:41:00,72.1,64.5,29.06,West,281,6.3,7.6,77,0.00,,,0.00,LWC V2.10 B1813,2013-06-30 12:41:00,
2013-06-30 07:46:00,72.1,65.3,29.09,WNW,285,5.8,5.8,79,0.00,,,0.00,LWC V2.10 B1813,2013-06-30 12:46:00,
2013-06-30 07:51:00,72.0,65.4,29.09,WSW,248,5.4,8.3,80,0.00,,,0.00,LWC V2.10 B1813,2013-06-30 12:51:00,
2013-06-30 07:56:00,72.0,65.4,29.09,West,276,6.7,7.6,80,0.00,,,0.00,LWC V2.10 B1813,2013-06-30 12:56:00,
2013-06-30 08:02:00,71.8,65.3,29.12,West,265,8.1,15.4,80,0.00,,,0.00,LWC V2.10 B1813,2013-06-30 13:02:00,
2013-06-30 08:07:00,71.6,65.1,29.12,West,273,9.2,12.8,80,0.00,,,0.00,LWC V2.10 B1813,2013-06-30 13:07:00,
2013-06-30 08:12:00,71.6,65.1,29.12,West,279,2.7,10.5,80,0.00,,,0.00,LWC V2.10 B1813,2013-06-30 13:12:00,
2013-06-30 08:17:00,71.6,65.1,29.12,WNW,294,5.8,11.0,80,0.00,,,0.00,LWC V2.10 B1813,2013-06-30 13:17:00,
2013-06-30 08:22:00,71.6,65.1,29.12,WNW,286,3.1,10.1,80,0.00,,,0.00,LWC V2.10 B1813,2013-06-30 13:22:00,
2013-06-30 08:27:00,71.8,65.3,29.12,NW,323,5.8,6.3,80,0.00,,,0.00,LWC V2.10 B1813,2013-06-30 13:27:00,
2013-06-30 08:32:00,71.8,65.3,29.12,WNW,289,3.1,5.4,80,0.00,,,0.00,LWC V2.10 B1813,2013-06-30 13:32:00,
2013-06-30 08:37:00,71.6,65.1,29.12,West,278,8.3,8.3,80,0.00,,,0.00,LWC V2.10 B1813,2013-06-30 13:37:00,
2013-06-30 08:42:00,71.6,65.4,29.12,West,274,5.8,8.1,81,0.00,,,0.00,LWC V2.10 B1813,2013-06-30 13:42:00,
2013-06-30 08:44:00,71.6,65.4,29.12,WNW,288,7.6,7.6,81,0.00,,,0.00,LWC V2.10 B1813,2013-06-30 13:44:00,
2013-06-30 08:49:00,71.4,66.0,29.12,West,280,4.0,6.3,83,0.00,,,0.00,LWC V2.10 B1813,2013-06-30 13:49:00,
2013-06-30 08:54:00,71.6,66.2,29.12,West,269,6.3,10.1,83,0.00,,,0.00,LWC V2.10 B1813,2013-06-30 13:54:00,
2013-06-30 08:59:00,71.6,66.2,29.12,WNW,293,4.5,8.1,83,0.00,,,0.00,LWC V2.10 B1813,2013-06-30 13:59:00,
2013-06-30 09:04:00,71.6,65.8,29.12,WNW,302,2.7,8.3,82,0.00,,,0.00,LWC V2.10 B1813,2013-06-30 14:04:00,
2013-06-30 09:09:00,71.8,66.0,29.12,West,268,6.7,8.1,82,0.00,,,0.00,LWC V2.10 B1813,2013-06-30 14:09:00,
2013-06-30 09:14:00,71.8,66.0,29.12,West,272,2.7,5.8,82,0.00,,,0.00,LWC V2.10 B1813,2013-06-30 14:14:00,
2013-06-30 09:19:00,72.0,66.5,29.15,West,279,5.4,5.8,83,0.00,,,0.00,LWC V2.10 B1813,2013-06-30 14:19:00,
2013-06-30 09:24:00,71.8,66.0,29.15,West,269,5.4,5.4,82,0.00,,,0.00,LWC V2.10 B1813,2013-06-30 14:24:00,
2013-06-30 09:29:00,72.0,66.2,29.15,WSW,242,3.6,5.8,82,0.00,,,0.00,LWC V2.10 B1813,2013-06-30 14:29:00,
2013-06-30 09:34:00,72.1,66.3,29.15,WSW,249,2.7,6.3,82,0.00,,,0.00,LWC V2.10 B1813,2013-06-30 14:34:00,
2013-06-30 09:39:00,72.1,66.3,29.15,SW,235,4.0,4.0,82,0.00,,,0.00,LWC V2.10 B1813,2013-06-30 14:39:00,
2013-06-30 09:44:00,72.3,66.2,29.15,West,266,2.7,4.9,81,0.00,,,0.00,LWC V2.10 B1813,2013-06-30 14:44:00,
2013-06-30 09:49:00,72.3,65.8,29.12,WNW,296,3.1,4.9,80,0.00,,,0.00,LWC V2.10 B1813,2013-06-30 14:49:00,
2013-06-30 09:54:00,72.7,66.1,29.12,WSW,241,2.2,5.4,80,0.00,,,0.00,LWC V2.10 B1813,2013-06-30 14:54:00,
2013-06-30 09:59:00,72.7,66.1,29.12,WSW,257,6.3,6.3,80,0.00,,,0.00,LWC V2.10 B1813,2013-06-30 14:59:00,
2013-06-30 10:04:00,73.0,66.1,29.12,West,260,5.8,8.1,79,0.00,,,0.00,LWC V2.10 B1813,2013-06-30 15:04:00,
2013-06-30 10:09:00,73.2,66.3,29.12,SW,227,7.2,7.2,79,0.00,,,0.00,LWC V2.10 B1813,2013-06-30 15:09:00,
2013-06-30 10:14:00,73.6,65.9,29.12,WSW,255,4.0,7.2,77,0.00,,,0.00,LWC V2.10 B1813,2013-06-30 15:14:00,
2013-06-30 10:19:00,74.1,66.8,29.12,WSW,243,4.0,5.4,78,0.00,,,0.00,LWC V2.10 B1813,2013-06-30 15:19:00,
2013-06-30 10:25:00,74.1,66.4,29.12,SW,236,3.1,4.9,77,0.00,,,0.00,LWC V2.10 B1813,2013-06-30 15:25:00,
2013-06-30 10:30:00,74.1,66.4,29.12,West,266,3.6,7.6,77,0.00,,,0.00,LWC V2.10 B1813,2013-06-30 15:30:00,
2013-06-30 10:35:00,74.3,67.0,29.12,WSW,241,5.4,6.7,78,0.00,,,0.00,LWC V2.10 B1813,2013-06-30 15:35:00,
2013-06-30 10:40:00,74.3,67.0,29.12,WSW,254,4.0,6.3,78,0.00,,,0.00,LWC V2.10 B1813,2013-06-30 15:40:00,
2013-06-30 10:45:00,74.8,67.1,29.12,SW,225,5.4,5.8,77,0.00,,,0.00,LWC V2.10 B1813,2013-06-30 15:45:00,
2013-06-30 10:50:00,75.6,67.4,29.12,WSW,258,5.4,8.1,76,0.00,,,0.00,LWC V2.10 B1813,2013-06-30 15:50:00,
2013-06-30 10:55:00,76.3,67.4,29.12,SW,220,6.3,6.3,74,0.00,,,0.00,LWC V2.10 B1813,2013-06-30 15:55:00,
2013-06-30 11:00:00,76.6,66.9,29.12,West,273,4.9,7.6,72,0.00,,,0.00,LWC V2.10 B1813,2013-06-30 16:00:00,
2013-06-30 11:05:00,76.6,66.9,29.12,SW,233,4.0,7.6,72,0.00,,,0.00,LWC V2.10 B1813,2013-06-30 16:05:00,
2013-06-30 11:10:00,77.2,66.6,29.12,WSW,248,3.1,7.6,70,0.00,,,0.00,LWC V2.10 B1813,2013-06-30 16:10:00,
2013-06-30 11:15:00,77.2,66.2,29.12,SSW,209,4.5,9.2,69,0.00,,,0.00,LWC V2.10 B1813,2013-06-30 16:15:00,
2013-06-30 11:20:00,77.7,66.3,29.09,WSW,256,5.4,8.3,68,0.00,,,0.00,LWC V2.10 B1813,2013-06-30 16:20:00,
2013-06-30 11:25:00,78.6,66.7,29.09,SSW,206,3.6,6.3,67,0.00,,,0.00,LWC V2.10 B1813,2013-06-30 16:25:00,
2013-06-30 11:30:00,78.8,66.0,29.09,SW,221,5.8,6.7,65,0.00,,,0.00,LWC V2.10 B1813,2013-06-30 16:30:00,
2013-06-30 11:35:00,79.2,66.4,29.09,West,260,4.9,7.6,65,0.00,,,0.00,LWC V2.10 B1813,2013-06-30 16:35:00,
2013-06-30 11:40:00,79.7,66.0,29.09,West,277,5.4,5.4,63,0.00,,,0.00,LWC V2.10 B1813,2013-06-30 16:40:00,
2013-06-30 11:45:00,81.1,66.9,29.09,SW,229,3.6,5.8,62,0.00,,,0.00,LWC V2.10 B1813,2013-06-30 16:45:00,
2013-06-30 11:50:00,81.5,66.7,29.09,WSW,242,4.0,6.3,61,0.00,,,0.00,LWC V2.10 B1813,2013-06-30 16:50:00,
2013-06-30 11:55:00,82.4,66.6,29.09,West,260,0.0,3.6,59,0.00,,,0.00,LWC V2.10 B1813,2013-06-30 16:55:00,
2013-06-30 12:00:00,83.7,67.3,29.09,NW,320,3.6,5.4,58,0.00,,,0.00,LWC V2.10 B1813,2013-06-30 17:00:00,
2013-06-30 12:05:00,83.3,65.9,29.09,SW,225,3.1,5.8,56,0.00,,,0.00,LWC V2.10 B1813,2013-06-30 17:05:00,
2013-06-30 12:10:00,82.9,65.6,29.09,West,270,3.1,6.3,56,0.00,,,0.00,LWC V2.10 B1813,2013-06-30 17:10:00,
2013-06-30 12:15:00,83.5,65.6,29.09,WNW,293,4.0,4.0,55,0.00,,,0.00,LWC V2.10 B1813,2013-06-30 17:15:00,
2013-06-30 12:20:00,84.0,65.6,29.09,WSW,249,2.7,5.8,54,0.00,,,0.00,LWC V2.10 B1813,2013-06-30 17:20:00,
2013-06-30 12:25:00,84.6,65.5,29.09,SW,233,5.4,5.8,53,0.00,,,0.00,LWC V2.10 B1813,2013-06-30 17:25:00,
2013-06-30 12:30:00,84.7,65.7,29.09,SSE,149,3.1,5.8,53,0.00,,,0.00,LWC V2.10 B1813,2013-06-30 17:30:00,
2013-06-30 12:35:00,84.9,65.8,29.09,SW,235,3.6,5.8,53,0.00,,,0.00,LWC V2.10 B1813,2013-06-30 17:35:00,
2013-06-30 12:39:00,85.3,65.6,29.09,WSW,248,3.1,6.3,52,0.00,,,0.00,LWC V2.10 B1813,2013-06-30 17:39:00,
2013-06-30 12:44:00,85.5,65.8,29.09,South,184,3.1,3.6,52,0.00,,,0.00,LWC V2.10 B1813,2013-06-30 17:44:00,
2013-06-30 12:49:00,85.8,65.6,29.09,SW,223,5.4,5.4,51,0.00,,,0.00,LWC V2.10 B1813,2013-06-30 17:49:00,
2013-06-30 12:54:00,85.8,65.6,29.09,WSW,253,6.3,6.3,51,0.00,,,0.00,LWC V2.10 B1813,2013-06-30 17:54:00,
2013-06-30 12:59:00,85.3,64.5,29.09,SW,218,5.8,5.8,50,0.00,,,0.00,LWC V2.10 B1813,2013-06-30 17:59:00,
2013-06-30 13:04:00,85.5,64.7,29.09,SW,227,3.6,5.4,50,0.00,,,0.00,LWC V2.10 B1813,2013-06-30 18:04:00,
2013-06-30 13:09:00,85.5,64.7,29.09,WSW,239,5.8,7.6,50,0.00,,,0.00,LWC V2.10 B1813,2013-06-30 18:09:00,
2013-06-30 13:14:00,86.0,65.2,29.09,West,265,4.0,7.6,50,0.00,,,0.00,LWC V2.10 B1813,2013-06-30 18:14:00,
2013-06-30 13:19:00,85.8,64.4,29.09,West,261,7.6,7.6,49,0.00,,,0.00,LWC V2.10 B1813,2013-06-30 18:19:00,
2013-06-30 13:24:00,85.6,64.8,29.09,SSW,203,4.0,5.4,50,0.00,,,0.00,LWC V2.10 B1813,2013-06-30 18:24:00,
2013-06-30 13:29:00,86.0,64.6,29.09,SW,215,5.8,5.8,49,0.00,,,0.00,LWC V2.10 B1813,2013-06-30 18:29:00,
2013-06-30 13:34:00,86.4,64.9,29.06,West,265,6.3,6.3,49,0.00,,,0.00,LWC V2.10 B1813,2013-06-30 18:34:00,
2013-06-30 13:39:00,86.0,64.0,29.06,West,260,5.8,8.3,48,0.00,,,0.00,LWC V2.10 B1813,2013-06-30 18:39:00,
2013-06-30 13:44:00,86.2,64.2,29.06,SW,224,8.3,8.3,48,0.00,,,0.00,LWC V2.10 B1813,2013-06-30 18:44:00,
2013-06-30 13:49:00,86.5,64.5,29.09,WSW,238,6.3,7.6,48,0.00,,,0.00,LWC V2.10 B1813,2013-06-30 18:49:00,
2013-06-30 13:54:00,87.8,65.0,29.09,WSW,247,3.6,6.3,47,0.00,,,0.00,LWC V2.10 B1813,2013-06-30 18:54:00,
2013-06-30 13:59:00,87.8,64.4,29.09,WSW,245,5.8,6.3,46,0.00,,,0.00,LWC V2.10 B1813,2013-06-30 18:59:00,
2013-06-30 14:04:00,87.8,64.4,29.09,West,274,3.6,4.5,46,0.00,,,0.00,LWC V2.10 B1813,2013-06-30 19:04:00,
2013-06-30 14:09:00,88.7,65.2,29.09,WSW,258,3.6,7.6,46,0.00,,,0.00,LWC V2.10 B1813,2013-06-30 19:09:00,
2013-06-30 14:14:00,88.9,64.1,29.09,WSW,254,5.4,6.3,44,0.00,,,0.00,LWC V2.10 B1813,2013-06-30 19:14:00,
2013-06-30 14:19:00,88.7,63.9,29.09,WSW,240,4.9,8.7,44,0.00,,,0.00,LWC V2.10 B1813,2013-06-30 19:19:00,
2013-06-30 14:24:00,89.1,64.3,29.09,SW,220,3.6,7.6,44,0.00,,,0.00,LWC V2.10 B1813,2013-06-30 19:24:00,
2013-06-30 14:29:00,88.0,63.3,29.09,SSW,209,5.8,6.3,44,0.00,,,0.00,LWC V2.10 B1813,2013-06-30 19:29:00,
2013-06-30 14:34:00,88.5,64.4,29.09,WNW,282,5.4,8.1,45,0.00,,,0.00,LWC V2.10 B1813,2013-06-30 19:34:00,
2013-06-30 14:39:00,88.9,64.7,29.09,SW,233,6.7,10.1,45,0.00,,,0.00,LWC V2.10 B1813,2013-06-30 19:39:00,
2013-06-30 14:44:00,88.3,63.6,29.09,SW,235,6.7,8.7,44,0.00,,,0.00,LWC V2.10 B1813,2013-06-30 19:44:00,
2013-06-30 14:49:00,88.0,64.6,29.06,West,273,6.3,7.6,46,0.00,,,0.00,LWC V2.10 B1813,2013-06-30 19:49:00,
2013-06-30 14:54:00,88.3,64.9,29.06,SSW,213,3.6,6.3,46,0.00,,,0.00,LWC V2.10 B1813,2013-06-30 19:54:00,
2013-06-30 14:59:00,87.6,63.6,29.06,SW,225,7.2,8.7,45,0.00,,,0.00,LWC V2.10 B1813,2013-06-30 19:59:00,
2013-06-30 15:04:00,88.5,64.4,29.06,SW,220,9.2,9.2,45,0.00,,,0.00,LWC V2.10 B1813,2013-06-30 20:04:00,
2013-06-30 15:09:00,89.8,64.3,29.06,WNW,298,5.8,8.1,43,0.00,,,0.00,LWC V2.10 B1813,2013-06-30 20:09:00,
2013-06-30 15:14:00,89.8,62.9,29.06,South,188,8.3,8.3,41,0.00,,,0.00,LWC V2.10 B1813,2013-06-30 20:14:00,
2013-06-30 15:19:00,89.8,63.6,29.06,South,183,6.3,6.3,42,0.00,,,0.00,LWC V2.10 B1813,2013-06-30 20:19:00,
2013-06-30 15:24:00,90.5,63.5,29.06,SSE,163,7.6,7.6,41,0.00,,,0.00,LWC V2.10 B1813,2013-06-30 20:24:00,
2013-06-30 15:29:00,90.5,62.8,29.06,SW,217,8.7,11.0,40,0.00,,,0.00,LWC V2.10 B1813,2013-06-30 20:29:00,
2013-06-30 15:34:00,91.4,63.6,29.06,West,274,8.1,10.1,40,0.00,,,0.00,LWC V2.10 B1813,2013-06-30 20:34:00,
2013-06-30 15:39:00,90.7,63.0,29.06,WSW,248,8.7,8.7,40,0.00,,,0.00,LWC V2.10 B1813,2013-06-30 20:39:00,
2013-06-30 15:44:00,90.7,63.0,29.06,WSW,248,7.6,11.4,40,0.00,,,0.00,LWC V2.10 B1813,2013-06-30 20:44:00,
2013-06-30 15:49:00,91.0,63.3,29.06,WSW,245,8.1,10.5,40,0.00,,,0.00,LWC V2.10 B1813,2013-06-30 20:49:00,
2013-06-30 15:54:00,90.7,62.3,29.06,SW,230,8.3,10.1,39,0.00,,,0.00,LWC V2.10 B1813,2013-06-30 20:54:00,
2013-06-30 15:59:00,90.5,62.1,29.06,SW,233,6.3,7.6,39,0.00,,,0.00,LWC V2.10 B1813,2013-06-30 20:59:00,
2013-06-30 16:04:00,91.0,62.6,29.06,SW,234,6.3,8.7,39,0.00,,,0.00,LWC V2.10 B1813,2013-06-30 21:04:00,
2013-06-30 16:09:00,90.3,62.0,29.06,WSW,243,5.8,9.2,39,0.00,,,0.00,LWC V2.10 B1813,2013-06-30 21:09:00,
2013-06-30 16:14:00,90.1,61.8,29.06,SW,228,6.3,10.5,39,0.00,,,0.00,LWC V2.10 B1813,2013-06-30 21:14:00,
2013-06-30 16:19:00,90.1,61.8,29.03,South,182,5.4,6.3,39,0.00,,,0.00,LWC V2.10 B1813,2013-06-30 21:19:00,
2013-06-30 16:24:00,91.0,62.6,29.03,West,263,4.0,8.3,39,0.00,,,0.00,LWC V2.10 B1813,2013-06-30 21:24:00,
2013-06-30 16:29:00,90.3,62.0,29.03,SSW,198,5.8,8.7,39,0.00,,,0.00,LWC V2.10 B1813,2013-06-30 21:29:00,
2013-06-30 16:34:00,89.8,61.5,29.06,WSW,246,4.5,8.3,39,0.00,,,0.00,LWC V2.10 B1813,2013-06-30 21:34:00,
2013-06-30 16:39:00,89.6,61.3,29.06,SSW,209,4.0,8.3,39,0.00,,,0.00,LWC V2.10 B1813,2013-06-30 21:39:00,
2013-06-30 16:44:00,90.3,62.0,29.06,SW,236,5.4,8.3,39,0.00,,,0.00,LWC V2.10 B1813,2013-06-30 21:44:00,
2013-06-30 16:49:00,91.2,62.8,29.03,SW,225,8.1,9.2,39,0.00,,,0.00,LWC V2.10 B1813,2013-06-30 21:49:00,
2013-06-30 16:54:00,91.4,62.2,29.03,SW,221,4.0,5.4,38,0.00,,,0.00,LWC V2.10 B1813,2013-06-30 21:54:00,
2013-06-30 16:59:00,91.8,62.5,29.03,WSW,243,3.6,7.6,38,0.00,,,0.00,LWC V2.10 B1813,2013-06-30 21:59:00,
2013-06-30 17:04:00,92.1,62.8,29.03,WNW,292,3.6,3.6,38,0.00,,,0.00,LWC V2.10 B1813,2013-06-30 22:04:00,
2013-06-30 17:09:00,91.2,62.0,29.03,West,265,3.1,5.8,38,0.00,,,0.00,LWC V2.10 B1813,2013-06-30 22:09:00,
2013-06-30 17:14:00,90.7,61.5,29.03,South,187,8.1,8.3,38,0.00,,,0.00,LWC V2.10 B1813,2013-06-30 22:14:00,
2013-06-30 17:19:00,90.1,61.1,29.03,SSW,210,6.3,11.0,38,0.00,,,0.00,LWC V2.10 B1813,2013-06-30 22:19:00,
2013-06-30 17:24:00,90.5,61.4,29.03,West,259,10.5,11.0,38,0.00,,,0.00,LWC V2.10 B1813,2013-06-30 22:24:00,
2013-06-30 17:29:00,90.7,61.5,29.03,SW,235,4.9,8.3,38,0.00,,,0.00,LWC V2.10 B1813,2013-06-30 22:29:00,
2013-06-30 17:35:00,90.9,61.7,29.03,SW,236,10.1,10.1,38,0.00,,,0.00,LWC V2.10 B1813,2013-06-30 22:35:00,
2013-06-30 17:40:00,91.4,61.4,29.03,SSW,198,8.1,8.7,37,0.00,,,0.00,LWC V2.10 B1813,2013-06-30 22:40:00,
2013-06-30 17:45:00,91.4,61.4,29.03,SW,229,6.3,11.0,37,0.00,,,0.00,LWC V2.10 B1813,2013-06-30 22:45:00,
2013-06-30 17:50:00,91.6,61.6,29.03,SW,218,3.1,10.5,37,0.00,,,0.00,LWC V2.10 B1813,2013-06-30 22:50:00,
2013-06-30 17:55:00,91.4,61.4,29.03,SSW,199,5.8,11.9,37,0.00,,,0.00,LWC V2.10 B1813,2013-06-30 22:55:00,
2013-06-30 18:00:00,91.6,60.8,29.03,WSW,238,5.8,8.3,36,0.00,,,0.00,LWC V2.10 B1813,2013-06-30 23:00:00,
2013-06-30 18:05:00,91.8,60.2,29.03,SSW,212,7.2,11.0,35,0.00,,,0.00,LWC V2.10 B1813,2013-06-30 23:05:00,
2013-06-30 18:10:00,91.9,60.3,29.03,West,259,9.6,10.5,35,0.00,,,0.00,LWC V2.10 B1813,2013-06-30 23:10:00,
2013-06-30 18:15:00,91.9,60.3,29.03,WSW,250,5.4,10.1,35,0.00,,,0.00,LWC V2.10 B1813,2013-06-30 23:15:00,
2013-06-30 18:20:00,91.8,60.2,29.00,West,264,5.8,8.1,35,0.00,,,0.00,LWC V2.10 B1813,2013-06-30 23:20:00,
2013-06-30 18:25:00,91.8,60.2,29.00,WSW,237,3.6,8.3,35,0.00,,,0.00,LWC V2.10 B1813,2013-06-30 23:25:00,
2013-06-30 18:30:00,91.6,60.8,29.00,WSW,251,8.1,8.1,36,0.00,,,0.00,LWC V2.10 B1813,2013-06-30 23:30:00,
2013-06-30 18:35:00,91.6,60.8,29.00,WSW,237,4.0,8.3,36,0.00,,,0.00,LWC V2.10 B1813,2013-06-30 23:35:00,
2013-06-30 18:40:00,91.8,61.7,29.00,West,265,6.7,10.5,37,0.00,,,0.00,LWC V2.10 B1813,2013-06-30 23:40:00,
2013-06-30 18:45:00,91.8,61.7,29.00,West,261,5.4,7.2,37,0.00,,,0.00,LWC V2.10 B1813,2013-06-30 23:45:00,
2013-06-30 18:50:00,92.1,62.1,29.00,West,264,0.0,6.3,37,0.00,,,0.00,LWC V2.10 B1813,2013-06-30 23:50:00,
2013-06-30 18:55:00,91.6,61.6,29.00,WSW,257,4.0,7.6,37,0.00,,,0.00,LWC V2.10 B1813,2013-06-30 23:55:00,
2013-06-30 19:00:00,91.8,61.7,29.00,WNW,297,8.7,8.7,37,0.00,,,0.00,LWC V2.10 B1813,2013-07-01 00:00:00,
2013-06-30 19:05:00,91.8,61.0,29.00,West,278,5.8,10.5,36,0.00,,,0.00,LWC V2.10 B1813,2013-07-01 00:05:00,
2013-06-30 19:10:00,91.4,60.6,29.00,West,271,5.4,7.6,36,0.00,,,0.00,LWC V2.10 B1813,2013-07-01 00:10:00,
2013-06-30 19:15:00,91.2,61.3,29.00,West,265,7.6,8.7,37,0.00,,,0.00,LWC V2.10 B1813,2013-07-01 00:15:00,
2013-06-30 19:20:00,90.9,60.9,29.00,WSW,245,8.1,10.1,37,0.00,,,0.00,LWC V2.10 B1813,2013-07-01 00:20:00,
2013-06-30 19:25:00,90.9,60.9,29.00,WSW,255,6.3,9.6,37,0.00,,,0.00,LWC V2.10 B1813,2013-07-01 00:25:00,
2013-06-30 19:30:00,90.7,60.8,29.00,WSW,250,8.3,10.1,37,0.00,,,0.00,LWC V2.10 B1813,2013-07-01 00:30:00,
2013-06-30 19:35:00,90.7,60.0,29.00,West,273,8.7,9.6,36,0.00,,,0.00,LWC V2.10 B1813,2013-07-01 00:35:00,
2013-06-30 19:40:00,90.5,59.9,29.00,WSW,242,5.8,8.7,36,0.00,,,0.00,LWC V2.10 B1813,2013-07-01 00:40:00,
2013-06-30 19:45:00,90.5,59.9,29.00,West,272,6.3,8.7,36,0.00,,,0.00,LWC V2.10 B1813,2013-07-01 00:45:00,
2013-06-30 19:50:00,90.5,60.6,29.00,WNW,297,5.8,5.8,37,0.00,,,0.00,LWC V2.10 B1813,2013-07-01 00:50:00,
2013-06-30 19:55:00,90.5,60.6,29.00,SW,217,3.6,5.8,37,0.00,,,0.00,LWC V2.10 B1813,2013-07-01 00:55:00,
2013-06-30 20:00:00,90.1,60.3,29.00,WNW,295,3.6,5.4,37,0.00,,,0.00,LWC V2.10 B1813,2013-07-01 01:00:00,
2013-06-30 20:05:00,90.1,60.3,29.00,WSW,251,5.8,6.7,37,0.00,,,0.00,LWC V2.10 B1813,2013-07-01 01:05:00,
2013-06-30 20:10:00,89.8,60.0,29.00,WNW,285,7.6,7.6,37,0.00,,,0.00,LWC V2.10 B1813,2013-07-01 01:10:00,
2013-06-30 20:15:00,89.6,59.8,29.00,WSW,257,6.3,6.3,37,0.00,,,0.00,LWC V2.10 B1813,2013-07-01 01:15:00,
2013-06-30 20:20:00,89.2,60.3,29.00,WSW,244,5.4,5.4,38,0.00,,,0.00,LWC V2.10 B1813,2013-07-01 01:20:00,
2013-06-30 20:25:00,89.1,60.1,29.00,SW,220,4.0,7.6,38,0.00,,,0.00,LWC V2.10 B1813,2013-07-01 01:25:00,
2013-06-30 20:30:00,88.7,59.8,29.00,West,265,3.1,5.8,38,0.00,,,0.00,LWC V2.10 B1813,2013-07-01 01:30:00,
2013-06-30 20:35:00,88.3,59.5,29.00,West,259,6.3,6.3,38,0.00,,,0.00,LWC V2.10 B1813,2013-07-01 01:35:00,
2013-06-30 20:40:00,88.0,59.9,29.00,SW,222,4.0,8.3,39,0.00,,,0.00,LWC V2.10 B1813,2013-07-01 01:40:00,
2013-06-30 20:45:00,87.6,60.3,29.00,West,259,5.4,6.3,40,0.00,,,0.00,LWC V2.10 B1813,2013-07-01 01:45:00,
2013-06-30 20:50:00,87.4,60.1,29.00,SW,234,3.1,6.3,40,0.00,,,0.00,LWC V2.10 B1813,2013-07-01 01:50:00,
2013-06-30 20:55:00,87.3,60.0,29.00,West,270,2.7,3.6,40,0.00,,,0.00,LWC V2.10 B1813,2013-07-01 01:55:00,
2013-06-30 21:00:00,87.1,60.5,29.00,SW,226,3.1,4.9,41,0.00,,,0.00,LWC V2.10 B1813,2013-07-01 02:00:00,
2013-06-30 21:05:00,87.1,60.5,29.00,WSW,240,2.7,4.0,41,0.00,,,0.00,LWC V2.10 B1813,2013-07-01 02:05:00,
2013-06-30 21:10:00,86.7,60.8,29.00,WNW,291,3.1,3.1,42,0.00,,,0.00,LWC V2.10 B1813,2013-07-01 02:10:00,
2013-06-30 21:15:00,86.2,60.4,29.00,West,265,4.5,4.5,42,0.00,,,0.00,LWC V2.10 B1813,2013-07-01 02:15:00,
2013-06-30 21:20:00,85.8,60.7,29.03,West,263,3.6,4.0,43,0.00,,,0.00,LWC V2.10 B1813,2013-07-01 02:20:00,
2013-06-30 21:25:00,85.6,60.5,29.03,WSW,246,2.7,2.7,43,0.00,,,0.00,LWC V2.10 B1813,2013-07-01 02:25:00,
2013-06-30 21:30:00,85.3,60.9,29.03,SW,232,2.2,4.9,44,0.00,,,0.00,LWC V2.10 B1813,2013-07-01 02:30:00,
2013-06-30 21:35:00,85.3,60.9,29.03,West,259,3.1,3.1,44,0.00,,,0.00,LWC V2.10 B1813,2013-07-01 02:35:00,
2013-06-30 21:40:00,84.9,61.2,29.03,WSW,250,0.0,3.1,45,0.00,,,0.00,LWC V2.10 B1813,2013-07-01 02:40:00,
2013-06-30 21:45:00,84.6,61.5,29.03,WSW,247,3.1,3.1,46,0.00,,,0.00,LWC V2.10 B1813,2013-07-01 02:45:00,
2013-06-30 21:50:00,84.4,61.9,29.03,SW,223,0.0,0.0,47,0.00,,,0.00,LWC V2.10 B1813,2013-07-01 02:50:00,
2013-06-30 21:55:00,83.8,62.0,29.03,SW,216,4.0,4.0,48,0.00,,,0.00,LWC V2.10 B1813,2013-07-01 02:55:00,
2013-06-30 22:00:00,83.5,62.3,29.03,SW,221,2.7,3.6,49,0.00,,,0.00,LWC V2.10 B1813,2013-07-01 03:00:00,
2013-06-30 22:05:00,83.5,62.9,29.03,SW,232,2.2,3.6,50,0.00,,,0.00,LWC V2.10 B1813,2013-07-01 03:05:00,
2013-06-30 22:10:00,83.5,63.4,29.03,SSW,201,3.1,4.9,51,0.00,,,0.00,LWC V2.10 B1813,2013-07-01 03:10:00,
2013-06-30 22:15:00,83.5,63.4,29.03,WSW,258,2.7,4.9,51,0.00,,,0.00,LWC V2.10 B1813,2013-07-01 03:15:00,
2013-06-30 22:20:00,83.3,63.3,29.03,WSW,251,2.7,4.9,51,0.00,,,0.00,LWC V2.10 B1813,2013-07-01 03:20:00,
2013-06-30 22:25:00,83.3,63.3,29.03,WSW,256,0.0,2.7,51,0.00,,,0.00,LWC V2.10 B1813,2013-07-01 03:25:00,
2013-06-30 22:30:00,83.3,63.8,29.03,WSW,241,2.2,4.0,52,0.00,,,0.00,LWC V2.10 B1813,2013-07-01 03:30:00,
2013-06-30 22:35:00,83.1,63.6,29.03,SW,229,0.0,0.0,52,0.00,,,0.00,LWC V2.10 B1813,2013-07-01 03:35:00,
2013-06-30 22:40:00,82.8,63.9,29.03,SW,233,4.0,4.0,53,0.00,,,0.00,LWC V2.10 B1813,2013-07-01 03:40:00,
2013-06-30 22:45:00,82.6,63.7,29.03,West,263,2.2,2.2,53,0.00,,,0.00,LWC V2.10 B1813,2013-07-01 03:45:00,
2013-06-30 22:50:00,82.4,63.5,29.06,West,265,0.0,3.1,53,0.00,,,0.00,LWC V2.10 B1813,2013-07-01 03:50:00,
2013-06-30 22:55:00,82.6,63.7,29.06,West,265,0.0,0.0,53,0.00,,,0.00,LWC V2.10 B1813,2013-07-01 03:55:00,
2013-06-30 23:00:00,82.4,63.5,29.06,NNE,30,0.0,0.0,53,0.00,,,0.00,LWC V2.10 B1813,2013-07-01 04:00:00,
2013-06-30 23:01:00,82.4,63.5,29.06,NE,34,2.7,2.7,53,0.00,,,0.00,LWC V2.10 B1813,2013-07-01 04:01:00,
2013-06-30 23:06:00,81.9,63.6,29.06,NNE,32,2.7,2.7,54,0.00,,,0.00,LWC V2.10 B1813,2013-07-01 04:06:00,
2013-06-30 23:11:00,81.7,63.4,29.06,NE,36,0.0,0.0,54,0.00,,,0.00,LWC V2.10 B1813,2013-07-01 04:11:00,
2013-06-30 23:16:00,81.5,63.2,29.06,NE,36,0.0,0.0,54,0.00,,,0.00,LWC V2.10 B1813,2013-07-01 04:16:00,
2013-06-30 23:21:00,81.9,63.6,29.06,NE,36,0.0,0.0,54,0.00,,,0.00,LWC V2.10 B1813,2013-07-01 04:21:00,
2013-06-30 23:26:00,82.0,63.7,29.06,NE,36,0.0,0.0,54,0.00,,,0.00,LWC V2.10 B1813,2013-07-01 04:26:00,
2013-06-30 23:31:00,82.0,62.6,29.06,NE,36,0.0,0.0,52,0.00,,,0.00,LWC V2.10 B1813,2013-07-01 04:31:00,
2013-06-30 23:36:00,82.4,63.0,29.06,NE,36,0.0,0.0,52,0.00,,,0.00,LWC V2.10 B1813,2013-07-01 04:36:00,
2013-06-30 23:41:00,82.6,63.1,29.06,NE,36,0.0,0.0,52,0.00,,,0.00,LWC V2.10 B1813,2013-07-01 04:41:00,
2013-06-30 23:46:00,82.6,63.1,29.06,NE,36,0.0,0.0,52,0.00,,,0.00,LWC V2.10 B1813,2013-07-01 04:46:00,
2013-06-30 23:51:00,82.4,62.4,29.06,NE,36,0.0,0.0,51,0.00,,,0.00,LWC V2.10 B1813,2013-07-01 04:51:00,
2013-06-30 23:56:00,82.0,63.2,29.06,North,353,2.7,4.0,53,0.00,,,0.00,LWC V2.10 B1813,2013-07-01 04:56:00,